Hourly Data Report for March 20, 2018

MIRAMICHI RCS
NEW BRUNSWICK

47°00'34.000" N
65°27'54.000" W
33.00 m
8100989
71744
ACQ

Download Data

Hourly Data (March 2018)
Hourly Data Report for March 20, 2018
TIME
LST
Temp Definition
°C
Dew Point Definition
°C
Rel Hum Definition
%
Precip. Amount Definition
mm

Wind Dir Definition
10's deg

Wind Spd Definition
km/h
Visibility Definition
km
Stn Press Definition
kPa
Hmdx Definition


Wind Chill Definition


Weather Definition


00:00 -5.5 -10.6 67 0.0 27 14   99.67   -11 LegendNANA
01:00 -5.9 -10.6 69 0.0 25 12   99.71   -11 LegendNANA
02:00 -6.6 -10.7 73 0.0 26 10   99.73   -11 LegendNANA
03:00 -5.0 -9.7 70 0.0 29 14   99.75   -10 LegendNANA
04:00 -4.8 -9.9 68 0.0 27 12   99.79   -10 LegendNANA
05:00 -4.7 -10.3 65 0.0 29 17   99.88   -11 LegendNANA
06:00 -5.2 -10.8 65 0.0 29 15   99.93   -11 LegendNANA
07:00 -5.4 -10.9 66 0.0 29 14   100.02   -11 LegendNANA
08:00 -5.4 -11.2 64 0.0 29 16   100.07   -11 LegendNANA
09:00 -5.1 -11.5 61 0.0 29 20   100.12   -12 LegendNANA
10:00 -4.0 -11.4 56 0.0 30 21   100.15   -10 LegendNANA
11:00 -3.4 -10.9 56 0.0 28 18   100.21   -9 LegendNANA
12:00 -1.8 -10.5 52 0.0 28 18   100.22   -7 LegendNANA
13:00 -0.8 -10.3 49 0.0 28 18   100.22   -6 LegendNANA
14:00 0.5 -9.1 49 0.0 29 17   100.23     LegendNANA
15:00 1.5 -9.2 45 0.0 28 12   100.24     LegendNANA
16:00 2.1 -8.4 46 0.0 27 16   100.30     LegendNANA
17:00 2.2 -8.3 46 0.0 28 15   100.34     LegendNANA
18:00 1.6 -8.3 48 0.0 29 13   100.42     LegendNANA
19:00 -0.7 -8.2 57 0.0 28 7   100.52   -3 LegendNANA
20:00 -1.7 -8.6 59 0.0 28 10   100.64   -5 LegendNANA
21:00 -2.8 -8.7 64 0.0 29 6   100.73   -5 LegendNANA
22:00 -6.0 -10.6 70 0.0 27 4   100.75   -8 LegendNANA
23:00 -8.5 -11.6 78 0.0 23 9   100.79   -13 LegendNANA

Notes on Data Quality.

Legend

  • E = Estimated
  • M = Missing
  • NA = Not Available*
  • [empty] = Indicates an unobserved value
Date modified: